Location: *
(44.3683°N, 6.6958°E)
Time: 01:47:50
(UTC+00:00)

CZ-2C R/B - Pass Details

Date: 14 October 2019
Orbit: 703 x 908 km, 98.1° (Epoch: 11 November)

Event Time Altitude Azimuth Distance (km) Brightness Sun altitude
Exits shadow 19:10:54 36° 37° (NE) 1,416 4.1 -25.6°
Drops below altitude 10° 19:14:59 10° 0° (N) 2,599 5.9 -26.3°
Sets 19:17:31 0° 354° (N) 3,536 6.7 -26.7°
